When you browse on this site, cookies collect data to enhance your experience and personalize the content and advertising you see.
Visit our Privacy Policy to learn more. By continuing to use the site, you agree to this use of cookies and data.
  • în România
  • Lista ţărilor
  • Pe 7 zile
  • Temperatura apei
  • Hartă satelitară
  • Meteo pe hartă
  • Widget-uri
  • user-avatar
    Intrare

    Meteo pe oră la Bristol

    Astăzi, 18 Aprilie, Joi

    Timp Temperatura Precipitaţii Vânt Presiune Umiditate
    00:00 +9°C° 0 mm 3 m/s 764 mmHg 90%
    01:00 +9°C° 0 mm 3 m/s 764 mmHg 91%
    02:00 +8°C° 0 mm 4 m/s 764 mmHg 92%
    03:00 +8°C° 0 mm 4 m/s 764 mmHg 93%
    04:00 +8°C° 0 mm 4 m/s 764 mmHg 93%
    05:00 +8°C° 0 mm 4 m/s 764 mmHg 93%
    06:00 +8°C° 0 mm 4 m/s 764 mmHg 93%
    07:00 +10°C° 0 mm 4 m/s 764 mmHg 89%
    08:00 +12°C° 0 mm 5 m/s 765 mmHg 85%
    09:00 +13°C° 0 mm 5 m/s 765 mmHg 81%
    10:00 +15°C° 0 mm 5 m/s 765 mmHg 77%
    11:00 +16°C° 0 mm 5 m/s 765 mmHg 73%
    12:00 +17°C° 0 mm 5 m/s 765 mmHg 70%
    13:00 +19°C° 0 mm 5 m/s 765 mmHg 69%
    14:00 +19°C° 0 mm 5 m/s 765 mmHg 68%
    15:00 +19°C° 0 mm 4 m/s 765 mmHg 68%
    16:00 +19°C° 0 mm 4 m/s 765 mmHg 72%
    17:00 +18°C° 0 mm 3 m/s 765 mmHg 76%
    18:00 +18°C° 0 mm 3 m/s 766 mmHg 80%
    19:00 +16°C° 0 mm 3 m/s 766 mmHg 80%
    20:00 +14°C° 0 mm 3 m/s 767 mmHg 81%
    21:00 +13°C° 0 mm 3 m/s 767 mmHg 81%
    22:00 +12°C° 0 mm 3 m/s 767 mmHg 79%
    23:00 +12°C° 0 mm 4 m/s 768 mmHg 78%

    Mâine, 19 Aprilie, Vineri

    Timp Temperatura Precipitaţii Vânt Presiune Umiditate
    00:00 +11°C° 0 mm 4 m/s 768 mmHg 76%
    01:00 +10°C° 0 mm 4 m/s 768 mmHg 79%
    02:00 +10°C° 0 mm 3 m/s 768 mmHg 81%
    03:00 +9°C° 0 mm 3 m/s 768 mmHg 84%
    04:00 +9°C° 0 mm 3 m/s 768 mmHg 86%
    05:00 +9°C° 0 mm 3 m/s 769 mmHg 87%
    06:00 +9°C° 0 mm 3 m/s 769 mmHg 89%
    07:00 +11°C° 0 mm 3 m/s 769 mmHg 86%
    08:00 +12°C° 0 mm 3 m/s 770 mmHg 82%
    09:00 +14°C° 0 mm 4 m/s 770 mmHg 79%
    10:00 +17°C° 0 mm 4 m/s 770 mmHg 74%
    11:00 +19°C° 0 mm 4 m/s 770 mmHg 70%
    12:00 +20°C° 0 mm 4 m/s 770 mmHg 66%
    13:00 +21°C° 0 mm 4 m/s 770 mmHg 64%
    14:00 +21°C° 0 mm 4 m/s 770 mmHg 63%
    15:00 +21°C° 0 mm 3 m/s 770 mmHg 62%
    16:00 +20°C° 0 mm 3 m/s 770 mmHg 67%
    17:00 +19°C° 0 mm 3 m/s 770 mmHg 72%
    18:00 +18°C° 0 mm 3 m/s 770 mmHg 77%
    19:00 +17°C° 0 mm 3 m/s 771 mmHg 78%
    20:00 +14°C° 0 mm 3 m/s 771 mmHg 79%
    21:00 +14°C° 0 mm 2 m/s 772 mmHg 80%
    22:00 +13°C° 0 mm 2 m/s 772 mmHg 82%
    23:00 +12°C° 0 mm 2 m/s 772 mmHg 85%

    Poimâine, 20 Aprilie, Sâmbătă

    Timp Temperatura Precipitaţii Vânt Presiune Umiditate
    00:00 +10°C° 0 mm 2 m/s 772 mmHg 87%
    01:00 +10°C° 0 mm 2 m/s 772 mmHg 88%
    02:00 +9°C° 0 mm 2 m/s 772 mmHg 89%
    03:00 +9°C° 0 mm 2 m/s 772 mmHg 90%
    04:00 +8°C° 0 mm 2 m/s 772 mmHg 90%
    05:00 +8°C° 0 mm 3 m/s 772 mmHg 90%
    06:00 +8°C° 0 mm 3 m/s 772 mmHg 90%
    07:00 +10°C° 0 mm 3 m/s 772 mmHg 86%
    08:00 +12°C° 0 mm 3 m/s 772 mmHg 83%
    09:00 +14°C° 0 mm 3 m/s 772 mmHg 79%
    10:00 +17°C° 0 mm 3 m/s 771 mmHg 75%
    11:00 +19°C° 0 mm 3 m/s 771 mmHg 70%
    12:00 +20°C° 0 mm 3 m/s 771 mmHg 65%
    13:00 +21°C° 0 mm 3 m/s 771 mmHg 64%
    14:00 +21°C° 0 mm 3 m/s 770 mmHg 63%
    15:00 +21°C° 0 mm 3 m/s 770 mmHg 62%
    16:00 +21°C° 0 mm 3 m/s 770 mmHg 66%
    17:00 +20°C° 0 mm 2 m/s 770 mmHg 71%
    18:00 +19°C° 0 mm 2 m/s 769 mmHg 76%
    19:00 +18°C° 0 mm 2 m/s 769 mmHg 80%
    20:00 +16°C° 0 mm 2 m/s 769 mmHg 83%
    21:00 +14°C° 0 mm 2 m/s 769 mmHg 87%
    22:00 +14°C° 0 mm 2 m/s 769 mmHg 88%
    23:00 +13°C° 0 mm 2 m/s 769 mmHg 89%

    21 Aprilie, Duminică

    Timp Temperatura Precipitaţii Vânt Presiune Umiditate
    00:00 +12°C° 0 mm 2 m/s 769 mmHg 90%
    01:00 +12°C° 0 mm 2 m/s 768 mmHg 89%
    02:00 +11°C° 0 mm 1 m/s 768 mmHg 88%
    03:00 +11°C° 0 mm 1 m/s 767 mmHg 88%
    04:00 +11°C° 0 mm 1 m/s 767 mmHg 87%
    05:00 +10°C° 0 mm 1 m/s 767 mmHg 87%
    06:00 +9°C° 0 mm 2 m/s 766 mmHg 87%
    07:00 +12°C° 0 mm 2 m/s 766 mmHg 81%
    08:00 +14°C° 0 mm 2 m/s 766 mmHg 75%
    09:00 +16°C° 0 mm 2 m/s 766 mmHg 69%
    10:00 +17°C° 0 mm 2 m/s 765 mmHg 65%
    11:00 +20°C° 0 mm 1 m/s 765 mmHg 60%
    12:00 +21°C° 0 mm 1 m/s 764 mmHg 56%
    13:00 +21°C° 0 mm 1 m/s 764 mmHg 55%
    14:00 +22°C° 0 mm 1 m/s 763 mmHg 55%
    15:00 +22°C° 0 mm 1 m/s 762 mmHg 54%
    16:00 +21°C° 0 mm 1 m/s 762 mmHg 60%
    17:00 +21°C° 0 mm 1 m/s 761 mmHg 66%
    18:00 +20°C° 0 mm 1 m/s 761 mmHg 71%
    19:00 +19°C° 0 mm 1 m/s 761 mmHg 75%
    20:00 +16°C° 0 mm 1 m/s 761 mmHg 79%
    21:00 +14°C° 0 mm 1 m/s 761 mmHg 83%
    22:00 +14°C° 0 mm 1 m/s 760 mmHg 85%
    23:00 +13°C° 0 mm 1 m/s 760 mmHg 87%

    22 Aprilie, Luni

    Timp Temperatura Precipitaţii Vânt Presiune Umiditate
    00:00 +12°C° 0 mm 2 m/s 759 mmHg 90%
    01:00 +10°C° 0 mm 2 m/s 759 mmHg 91%
    02:00 +10°C° 0 mm 2 m/s 758 mmHg 92%
    03:00 +9°C° 0 mm 2 m/s 758 mmHg 93%
    04:00 +9°C° 0 mm 2 m/s 758 mmHg 92%
    05:00 +9°C° 0 mm 2 m/s 757 mmHg 92%
    06:00 +9°C° 0 mm 2 m/s 757 mmHg 91%
    07:00 +12°C° 0 mm 2 m/s 757 mmHg 87%
    08:00 +13°C° 0 mm 3 m/s 757 mmHg 82%
    09:00 +16°C° 0 mm 3 m/s 756 mmHg 77%
    10:00 +18°C° 0 mm 3 m/s 756 mmHg 71%
    11:00 +19°C° 0 mm 4 m/s 756 mmHg 64%
    12:00 +21°C° 0 mm 4 m/s 755 mmHg 58%
    13:00 +21°C° 0 mm 4 m/s 755 mmHg 58%
    14:00 +21°C° 0 mm 4 m/s 755 mmHg 59%
    15:00 +21°C° 0 mm 4 m/s 754 mmHg 59%
    16:00 +20°C° 0 mm 3 m/s 754 mmHg 64%
    17:00 +19°C° 0 mm 3 m/s 754 mmHg 68%
    18:00 +19°C° 0 mm 2 m/s 754 mmHg 73%
    19:00 +17°C° 0 mm 2 m/s 754 mmHg 77%
    20:00 +15°C° 0 mm 2 m/s 754 mmHg 81%
    21:00 +13°C° 0 mm 2 m/s 754 mmHg 85%
    22:00 +13°C° 0 mm 2 m/s 754 mmHg 86%
    23:00 +11°C° 0 mm 3 m/s 754 mmHg 87%

    23 Aprilie, Marţi

    Timp Temperatura Precipitaţii Vânt Presiune Umiditate
    00:00 +10°C° 0 mm 3 m/s 754 mmHg 88%
    01:00 +10°C° 0 mm 3 m/s 753 mmHg 88%
    02:00 +9°C° 0 mm 3 m/s 753 mmHg 88%
    03:00 +9°C° 0 mm 3 m/s 753 mmHg 88%
    04:00 +9°C° 0 mm 3 m/s 753 mmHg 89%
    05:00 +8°C° 0 mm 3 m/s 752 mmHg 89%
    06:00 +7°C° 0 mm 4 m/s 752 mmHg 90%
    07:00 +11°C° 0 mm 4 m/s 752 mmHg 85%
    08:00 +13°C° 0 mm 4 m/s 752 mmHg 81%
    09:00 +15°C° 0 mm 4 m/s 752 mmHg 77%
    10:00 +17°C° 0 mm 4 m/s 753 mmHg 72%
    11:00 +19°C° 0 mm 5 m/s 753 mmHg 66%
    12:00 +21°C° 0 mm 5 m/s 753 mmHg 61%
    13:00 +21°C° 0.2 mm 5 m/s 753 mmHg 62%
    14:00 +21°C° 0.2 mm 4 m/s 752 mmHg 63%
    15:00 +21°C° 0.2 mm 4 m/s 752 mmHg 64%
    16:00 +20°C° 0.3 mm 4 m/s 753 mmHg 69%
    17:00 +19°C° 0.3 mm 3 m/s 753 mmHg 73%
    18:00 +18°C° 0.3 mm 2 m/s 753 mmHg 78%
    19:00 +16°C° 0.1 mm 3 m/s 754 mmHg 82%
    20:00 +14°C° 0.1 mm 3 m/s 754 mmHg 85%
    21:00 +12°C° 0.1 mm 3 m/s 755 mmHg 89%
    22:00 +11°C° 0 mm 3 m/s 755 mmHg 88%
    23:00 +10°C° 0 mm 3 m/s 755 mmHg 86%
    Arată mai mult